SCP
0 0 0 1 1 1 1 1 1 1 1 1 0 0 1 1 1 1 1 1 1 1 1 1 1 1 1 1 1 1 1 1 1 1 1 1 1 1 1 0 0 1 1
0 0 0 0 0 1 1 1 1 1 1 1 1 1 1 1 1 1 1 1 1 1 1 1 1 1 1 1 1 1 1 1 1 1 1 1 1 1 1 1 1 1 1
0 0 0 0 0 0 1 1 1 1 1 1 1 1 1 1 1 1 1 1 1 1 1 1 1 1 1 1 1 1 1 1 1 1 1 1 1 1 1 1 1 1 1
0 0 0 0 0 0 1 1 1 1 1 1 1 1 1 1 1 1 1 1 1 1 1 1 1 1 1 1 1 1 1 1 1 1 1 1 1 1 1 1 1 1 1
0 0 0 0 0 0 1 1 1 1 1 1 1 1 0 0 1 1 1 1 1 1 2 1 1 1 1 1 1 1 1 1 1 1 1 1 1 1 1 1 1 1 1
0 0 0 0 0 0 1 1 1 1 0 0 0 0 0 0 0 1 1 1 1 2 2 1 1 1 1 1 1 1 1 1 1 1 1 1 1 1 1 1 1 1 1
1 0 0 1 0 0 1 1 1 1 0 0 0 0 0 0 0 1 1 1 2 2 2 1 1 1 1 1 1 1 1 1 1 1 1 1 1 1 1 1 1 1 1
1 1 0 1 1 0 1 1 1 1 1 0 0 0 0 0 1 1 1 1 1 2 2 1 1 1 1 1 1 1 1 1 1 1 1 1 1 1 1 1 1 1 1
1 1 0 1 1 0 0 1 1 1 1 1 1 1 0 0 1 1 1 1 1 1 1 1 1 1 1 1 1 2 2 2 1 1 1 1 1 1 1 1 1 1 1
1 1 1 1 1 1 1 1 1 1 1 1 1 1 1 1 1 1 1 1 1 1 1 1 1 1 1 2 2 2 2 2 1 1 1 2 2 2 1 1 1 1 1
1 1 1 1 1 1 1 1 1 1 1 1 1 1 2 2 1 1 1 1 1 1 2 2 2 1 1 2 2 2 2 2 2 2 2 2 2 2 2 2 2 2 2
1 1 1 1 1 1 1 2 2 2 2 2 2 2 2 2 2 2 2 1 1 1 2 2 2 2 2 2 2 1 1 1 2 2 2 2 2 2 2 2 2 2 2
1 1 1 1 1 1 2 2 2 3 3 3 3 3 3 3 3 3 2 2 2 2 2 2 2 2 2 2 1 1 1 1 1 2 2 2 2 1 1 2 2 2 2
2 2 2 2 2 2 2 2 3 4 5 5 5 5 5 4 3 3 3 3 2 3 3 4 3 2 2 1 1 1 1 1 1 1 1 2 2 1 1 1 2 3 2
2 2 2 2 2 2 2 3 4 5 6 7 6 6 6 5 5 4 5 4 3 3 5 5 3 2 2 1 2 2 2 1 1 1 1 1 1 1 1 1 2 2 2
2 2 2 3 3 2 2 3 3 4 5 6 6 6 5 5 5 6 6 6 4 4 5 5 4 3 3 3 2 2 2 2 1 1 1 1 1 1 1 1 1 1 1
3 3 3 3 3 3 3 3 3 3 4 4 5 5 4 4 5 6 6 6 5 4 4 4 4 4 5 5 4 3 2 2 2 1 1 1 1 0 0 1 1 1 0
3 3 4 4 4 4 4 4 4 4 3 4 4 4 4 4 5 6 6 6 5 5 4 4 4 5 6 5 4 3 2 2 2 1 0 0 0 0 0 0 0 0 0
4 4 4 4 4 4 4 4 4 4 4 4 4 4 4 4 5 6 6 5 4 4 4 4 4 5 5 4 3 3 3 3 2 1 1 0 0 0 0 0 0 0 0
5 4 4 3 3 3 4 4 4 4 4 4 3 3 3 4 4 5 5 4 4 4 4 4 4 4 4 4 3 3 4 4 3 2 1 1 0 0 0 0 0 0 0
5 4 4 3 3 3 3 4 4 4 4 4 4 3 3 3 3 3 3 3 3 3 3 3 4 4 4 4 4 4 4 4 3 2 1 1 1 0 0 0 0 0 0
4 4 4 4 3 3 2 2 3 3 4 4 4 4 3 3 3 2 2 2 2 3 3 3 4 4 5 5 5 5 5 4 3 2 2 1 1 1 1 1 0 0 0
4 4 4 4 4 4 2 2 2 3 4 5 5 4 4 3 3 3 2 2 2 2 3 3 4 5 5 6 6 7 6 5 4 3 2 1 1 1 1 1 0 0 0
5 5 6 6 6 5 3 1 1 3 5 5 5 5 5 4 3 3 3 3 3 3 3 3 4 5 6 7 8 8 7 5 4 3 2 1 1 1 1 1 0 0 0
5 5 6 7 6 5 3 1 1 3 5 6 6 5 5 4 3 3 4 5 6 5 4 3 4 4 5 6 7 8 6 5 3 3 2 2 2 1 1 1 1 0 0
5 5 5 6 6 5 3 1 1 4 6 7 6 5 4 4 3 3 4 5 7 7 5 4 4 3 4 5 5 6 6 4 3 2 2 3 2 2 1 1 1 1 0
Wind_Speed
1 1 1 1 1 1 0 1 1 1 1 2 2 2 3 2 3 3 4 9 9 8 8 8 8 8 8 7 7 7 7 8 8 8 8 9 9 9 8 9 8 8 8
1 0 1 0 1 1 1 1 1 1 1 1 2 2 3 3 2 3 2 6 10 9 9 9 9 9 9 8 8 8 8 8 8 8 8 9 9 9 10 9 9 9 9
1 1 1 1 0 1 1 1 1 1 2 2 2 2 3 2 1 2 3 3 6 11 11 10 9 9 9 9 9 9 8 8 8 8 9 9 9 9 9 9 9 9 9
2 2 1 1 1 2 2 1 2 1 1 2 1 2 2 1 2 3 4 4 3 4 9 11 10 9 10 9 9 9 8 8 8 8 8 8 9 9 9 9 8 8 8
3 3 2 1 2 2 2 2 1 2 1 2 2 2 2 2 2 3 3 4 4 4 3 9 11 10 10 10 9 9 8 9 9 8 8 8 8 9 9 9 8 8 8
3 3 3 2 3 1 1 1 1 2 2 2 3 2 2 2 3 2 3 3 4 5 4 3 6 9 11 10 9 9 9 9 9 9 8 8 8 7 7 8 8 8 8
4 4 3 2 3 1 2 2 2 2 2 2 3 2 3 3 2 3 3 3 3 3 4 4 4 4 6 12 11 9 9 9 9 9 9 8 8 8 7 7 8 8 8
4 4 4 4 2 2 2 2 2 3 2 1 3 3 2 2 3 2 3 3 2 3 4 5 4 4 5 4 7 11 10 10 9 8 8 9 9 8 8 7 7 8 8
4 4 4 4 3 4 2 2 2 3 2 2 2 3 3 2 2 2 2 2 2 2 3 3 5 5 5 4 4 9 10 9 9 9 8 8 8 8 8 8 7 7 7
4 4 4 4 4 4 2 4 2 3 3 3 1 2 3 4 4 2 2 2 2 3 3 3 3 4 5 4 3 3 6 7 8 9 8 7 7 7 7 7 8 7 7
4 4 4 4 4 4 3 3 2 4 3 4 3 2 2 3 5 5 3 2 2 2 3 3 3 2 3 4 3 4 6 7 7 7 7 7 6 6 6 7 7 7 7
4 4 4 4 5 4 4 4 4 5 4 4 4 3 3 3 3 4 4 4 3 2 3 2 3 2 3 3 2 4 5 6 6 6 6 6 6 6 7 7 7 7 6
3 4 4 4 5 4 5 5 5 5 5 5 5 4 3 4 4 4 5 5 4 3 2 3 2 2 2 2 1 4 5 6 6 6 6 6 6 6 6 6 6 6 5
4 3 4 5 5 5 6 4 4 5 4 5 6 5 4 4 4 4 4 5 5 4 3 3 2 2 1 2 1 5 4 7 6 6 6 6 5 6 6 5 5 5 5
4 4 5 5 5 5 5 5 5 5 4 5 6 5 5 4 5 4 4 4 5 6 4 2 2 1 2 2 2 4 3 5 6 6 6 6 6 6 6 5 5 5 4
5 5 5 5 5 5 5 5 5 5 5 5 4 5 5 5 4 4 5 5 5 6 6 3 2 2 2 3 2 3 3 6 7 7 7 7 6 6 6 5 5 5 5
4 5 5 5 5 5 5 5 5 5 6 6 6 6 7 7 5 5 5 5 5 5 6 5 3 1 2 4 2 3 4 5 4 8 7 7 7 6 6 5 5 5 5
4 4 5 5 5 5 5 5 5 5 6 6 6 7 7 6 6 6 5 6 5 5 6 6 4 3 4 4 4 5 4 4 3 7 7 7 6 6 6 6 5 5 4
4 4 4 5 5 5 5 5 5 6 6 6 6 7 7 7 7 6 6 6 6 6 5 6 6 3 3 4 4 5 5 3 4 5 8 7 7 7 7 7 6 5 5
4 3 4 4 4 4 5 5 5 6 6 6 6 6 7 7 7 7 6 6 6 6 6 6 5 4 4 3 4 4 4 3 3 3 3 4 6 8 8 8 8 7 6
3 3 3 3 4 4 4 4 5 6 5 6 6 6 6 5 5 6 6 5 6 5 6 6 5 4 4 3 4 4 4 3 3 3 3 3 4 5 6 8 9 7 6
3 3 3 4 4 3 1 2 5 6 6 6 6 6 6 6 6 6 7 7 6 7 6 6 5 5 5 5 4 4 4 4 4 3 3 3 3 3 3 3 6 7 7
3 3 4 4 4 3 3 3 4 6 7 6 6 7 7 4 5 6 6 8 8 9 8 8 8 7 6 5 5 6 5 5 4 2 4 5 4 4 3 3 8 8 7
3 4 4 5 5 4 3 4 5 7 7 7 7 7 7 6 5 5 7 6 7 7 8 8 7 7 7 5 5 6 5 5 4 3 3 4 3 4 3 3 8 8 8
4 4 4 5 5 4 3 4 5 6 6 7 7 6 6 7 3 4 7 7 7 6 5 5 6 5 4 3 4 4 4 5 4 4 4 4 3 3 3 4 6 9 8
4 4 4 4 5 4 1 3 5 6 6 6 5 5 4 5 4 4 7 7 7 6 5 4 5 6 6 5 6 6 5 5 5 4 3 4 4 3 3 3 3 4 6
Wind_Direction
117 104 85 8 322 18 196 261 341 37 290 246 252 229 244 258 252 248 154 168 190 203 209 211 210 212 211 211 216 218 223 226 224 222 223 223 224 224 225 228 231 229 230
122 313 172 157 321 319 345 309 330 284 283 298 271 264 262 251 212 241 231 170 187 198 208 215 215 217 216 211 216 220 226 230 229 226 227 229 228 227 228 230 233 232 233
166 240 226 211 227 270 267 266 300 284 265 251 266 272 255 260 241 233 243 220 191 192 203 213 218 220 220 218 219 221 227 232 231 227 226 228 229 228 230 232 234 233 235
214 247 250 236 241 254 254 252 268 284 287 283 260 268 260 223 240 232 232 223 227 203 191 202 215 220 223 225 226 226 227 231 235 235 232 231 231 228 228 229 229 230 233
215 243 264 286 254 264 287 286 349 296 288 292 262 240 257 243 242 232 235 232 223 235 217 178 199 215 220 224 227 228 227 228 232 231 232 235 237 230 227 228 228 228 229
217 247 235 242 268 266 279 294 300 282 284 281 288 294 264 247 242 239 241 223 218 223 227 209 198 199 207 217 223 223 227 228 230 228 227 232 234 228 225 225 225 225 227
224 237 265 229 261 262 291 292 283 258 267 295 281 263 238 221 231 218 233 246 221 230 229 216 227 227 195 201 212 221 227 230 231 226 221 223 226 227 226 222 224 226 228
237 224 235 252 242 246 247 276 278 289 282 272 292 292 260 194 209 213 212 218 235 225 227 222 216 221 249 215 183 204 220 227 228 225 223 224 223 226 224 223 224 226 227
244 254 245 257 258 256 243 255 262 268 284 271 279 295 298 318 305 196 219 212 232 246 238 229 225 218 229 237 214 192 206 218 224 228 229 226 224 222 221 224 226 229 229
242 242 242 245 255 260 248 250 235 262 265 271 235 259 292 319 293 281 222 200 210 231 248 253 234 216 224 233 210 193 193 213 226 231 229 230 227 225 222 222 224 228 228
234 245 242 240 243 253 255 269 265 262 258 271 274 260 256 251 260 280 288 282 232 226 231 239 251 247 228 233 229 191 186 208 224 225 224 226 227 225 225 223 224 227 227
223 231 240 240 242 247 241 244 246 240 255 266 272 267 265 271 275 274 277 273 272 249 242 246 246 237 233 235 223 127 178 200 210 213 217 219 223 226 227 225 224 228 231
234 227 239 237 244 241 242 249 243 251 241 242 249 256 257 265 274 279 283 284 279 265 235 237 235 240 245 237 174 152 184 191 201 206 213 215 217 222 225 222 219 223 225
255 245 242 241 241 241 242 240 248 240 236 240 249 252 257 259 266 268 275 288 283 266 230 232 239 232 263 255 134 207 196 183 197 202 208 212 214 212 211 216 219 217 220
246 235 240 239 240 240 244 244 247 247 243 243 242 233 246 253 251 259 260 267 280 284 272 201 230 227 255 261 166 233 231 170 190 198 204 207 208 206 207 208 209 207 206
252 251 245 240 240 240 239 244 249 243 243 245 249 253 254 258 256 252 256 257 261 275 283 286 247 263 292 280 194 254 254 169 191 197 201 204 207 206 205 205 203 198 194
245 243 246 247 246 246 245 244 251 251 249 252 253 246 246 260 261 258 250 252 253 256 264 269 256 234 238 269 263 262 246 235 201 186 195 200 204 205 202 198 189 189 193
247 245 244 246 248 247 247 247 254 258 255 255 256 260 259 254 250 258 259 252 253 256 260 267 264 245 225 237 242 253 255 245 242 164 183 190 193 193 192 191 187 185 186
249 254 252 248 249 253 254 253 254 258 260 262 264 264 264 263 258 255 256 259 256 250 251 260 259 253 246 234 234 242 245 256 255 167 174 182 186 188 190 189 185 186 190
244 249 251 250 252 256 262 263 260 259 260 263 266 268 270 267 266 265 257 255 259 262 254 256 262 255 243 230 235 245 238 221 242 221 186 179 179 188 193 190 186 190 196
241 241 251 255 259 256 260 268 265 260 259 263 264 265 266 275 290 282 281 274 265 259 258 255 256 253 247 233 241 247 248 235 221 223 217 205 191 198 190 190 189 187 192
243 240 243 249 255 263 285 282 275 276 270 264 265 267 261 246 250 247 262 274 277 266 264 262 258 257 254 248 249 252 251 243 240 203 229 235 227 224 213 205 161 173 187
241 249 253 254 255 255 247 245 253 268 267 266 268 271 273 271 251 259 245 238 243 245 251 262 268 268 263 250 247 244 242 250 261 231 231 239 233 241 235 160 154 174 185
241 246 251 257 265 262 232 239 249 251 262 265 263 265 269 275 278 282 273 263 255 243 236 241 258 266 269 262 240 245 244 237 237 229 230 252 238 248 239 188 163 176 185
251 250 253 259 266 270 234 232 248 261 261 265 266 267 271 269 279 287 271 269 266 259 231 232 252 268 286 268 252 249 236 237 242 226 217 243 245 250 242 217 174 177 188
260 265 269 267 269 275 234 228 249 263 269 268 261 256 246 266 281 263 267 270 268 270 272 237 230 232 231 221 214 230 237 243 253 247 215 231 231 236 243 226 208 192 199